Location: Lahas
(43.5538°N, 0.8906°E)
Time: 08:18:54
(UTC+00:00)

Cosmos 1486 Rocket - Pass Details

Date: 15 May 2026
Orbit: 754 x 779 km, 74.1° (Epoch: 5 June)

Event Time Altitude Azimuth Distance (km) Brightness Sun altitude
Rises 21:55:06 0° 334° (NNW) 3,247 8.8 -21.8°
Reaches altitude 10° 21:57:32 10° 330° (NNW) 2,320 7.6 -22.1°
Maximum altitude 22:02:37 52° 255° (WSW) 959 4.5 -22.5°
Enters shadow 22:04:10 39° 206° (SSW) 1,154 4.6 -22.6°
